Regional Weather Roundup
Issued by NWS Albany, NY

Home | Current Version | Previous Version | Text Only | Print | Product List | Glossary On
Versions: 1 2 3 4 5 6 7 8 9 10 11 12 13 14 15 16 17 18 19 20 21 22 23 24 25 26 27 28 29 30 31 32 33 34 35 36 37 38 39 40 41 42 43 44 45 46 47 48 49 50
000
ASUS41 KALY 241010
RWRALY

NEW YORK STATE HOURLY WEATHER ROUNDUP
NATIONAL WEATHER SERVICE ALBANY NY
600 AM EDT FRI MAR 24 2017

NOTE: "FAIR" INDICATES FEW OR NO CLOUDS BELOW 12,000 FEET WITH NO
SIGNIFICANT WEATHER AND/OR NO OBSTRUCTIONS TO VISIBILITY.

NYZ032-033-038>043-046>054-057>066-NYZ062>081-082-084-241100-
EAST


CITY           SKY/WX    TMP DP  RH WIND       PRES   REMARKS
ALBANY         CLOUDY    31   9  39 S8        30.40S WCI  23
GLENS FALLS    CLOUDY    29  12  49 CALM      30.40R
POUGHKEEPSIE   CLOUDY    29  18  63 CALM      30.44S
NEWBURGH       MOCLDY    30  12  47 CALM      30.44F
MONTGOMERY     CLOUDY    28  18  66 CALM      30.42F
WHITE PLAINS   MOCLDY    33  24  69 CALM      30.46R
ISLIP          CLOUDY    34  27  75 SW6       30.49S WCI  29
NEW YORK CITY  CLOUDY    38  19  46 SW8       30.49R WCI  32
CENTRAL PARK   MOCLDY    37  16  42 W9        30.50R WCI  30
$$

NYZ005>009-017-018-044>046-055-056-241100-
CENTRAL


CITY           SKY/WX    TMP DP  RH WIND       PRES   REMARKS
FULTON         CLOUDY    34  16  47 SE5       30.22F WCI  30
SYRACUSE       CLOUDY    36  13  38 VRB6      30.21F WCI  31
ROME           CLOUDY    31  13  47 E8        30.29F WCI  23
ELMIRA         CLOUDY    37  13  37 E6        30.24F WCI  32
BINGHAMTON     CLOUDY    32  10  40 S7        30.25F WCI  26
MONTICELLO     CLOUDY    27  10  50 E3        30.38F
$$

NYZ026>034-041>043-087-241100-
NORTH


CITY           SKY/WX    TMP DP  RH WIND       PRES   REMARKS
WATERTOWN      CLOUDY    38  12  34 S9        30.20F WCI  31
FORT DRUM      NOT AVBL
MASSENA        CLOUDY    29  14  53 CALM      30.26F
SARANAC LAKE   CLOUDY    22  10  60 CALM      30.21F
PLATTSBURGH    CLOUDY    28  13  53 S5        30.31F WCI  23
$$

NYZ001>004-010>016-019>021-085-241100-
WEST


CITY           SKY/WX    TMP DP  RH WIND       PRES   REMARKS
NIAGARA FALLS  CLOUDY    40  27  59 S8        30.13R WCI  34
BUFFALO        LGT RAIN  42  29  59 S13       30.13R
DUNKIRK        LGT RAIN  41  24  51 S14       30.13F
JAMESTOWN      CLOUDY    39  16  38 S16G22    30.13S WCI  30
WELLSVILLE     LGT RAIN  38  13  35 S9        30.17S WCI  31
ROCHESTER      LGT RAIN  41  17  38 SW7       30.19R
PENN YAN       CLOUDY    38  12  34 S10       30.20F WCI  31
$$

             KEY
       WCI = WIND CHILL INDEX
       VSB = VISIBILITY
       HX  = HEAT INDEX
$$



USA.gov is the U.S. government's official web portal to all federal, state and local government web resources and services.